Weather reports worldwide

Advertisment
Istres, France (7647): temperature & dewpoint: 12.10.2018 03:00:00 - 18.10.2018 03:00:00 (CEST)Istres, France (7647): temperature 5cm: 12.10.2018 03:00:00 - 18.10.2018 03:00:00 (CEST)Istres, France (7647): wind speed & gusts: 12.10.2018 03:00:00 - 18.10.2018 03:00:00 (CEST)Istres, France (7647): wind direction: 12.10.2018 03:00:00 - 18.10.2018 03:00:00 (CEST)Istres, France (7647): reduced air pressure: 12.10.2018 03:00:00 - 18.10.2018 03:00:00 (CEST)Istres, France (7647): visibility: 12.10.2018 03:00:00 - 18.10.2018 03:00:00 (CEST)Istres, France (7647): precipitation: 12.10.2018 03:00:00 - 18.10.2018 03:00:00 (CEST)
Date & Time tt [°C] td [°C] tt 5cm [°C] ff [km/h] ff [kn] fx [km/h] fx [kn] dd ppp [hPa] vv [km] rr [mm]
18.10.2018 03:00:00 17,6 17,6 17,0 11 6 23 12 N 1014,3 15 0,2
18.10.2018 02:00:00 17,9 17,9 17,1 14 8 21 12 E 1014,9 10 0,0
18.10.2018 01:00:00 17,9 17,9 17,5 5 3 9 5 ENE 1015,0 6 0,0
18.10.2018 00:00:00 18,0 18,0 17,5 5 3 8 4 N 1015,1 6 0,0
17.10.2018 23:00:00 18,0 18,0 17,6 4 2 9 5 NNW 1015,1 4,7 0,2
17.10.2018 22:00:00 18,1 18,1 17,6 4 2 8 4 NNE 1014,9 7 0,0
17.10.2018 21:00:00 18,1 18,1 17,4 0 0 10 5 N 1014,8 12 0,2
17.10.2018 20:00:00 18,4 18,4 17,4 3 2 31 17 SE 1014,8 4,9 2,0
17.10.2018 19:00:00 20,1 19,3 19,3 10 5 21 11 N 1014,1 5 0,0
17.10.2018 18:00:00 21,3 18,5 21,1 11 6 15 8 NNW 1014,0 11 0,0
17.10.2018 17:00:00 22,1 16,8 22,5 11 6 13 7 NNW 1014,3 17 0,0
17.10.2018 16:00:00 22,3 15,2 23,3 10 6 17 9 NNW 1014,4 20 0,0
17.10.2018 15:00:00 22,3 17,7 25,3 6 3 17 9 NW 1014,6 16 0,0
17.10.2018 14:00:00 21,8 17,6 23,6 11 6 20 11 NNW 1015,4 13 0,0
17.10.2018 13:00:00 20,2 18,3 22,8 10 5 17 9 N 1016,4 17 0,0
17.10.2018 12:00:00 19,8 18,1 19,9 13 7 17 9 NNW 1016,7 20 0,0
17.10.2018 11:00:00 17,8 17,8 16,6 10 5 15 8 N 1016,8 9 0,0
17.10.2018 10:00:00 16,4 16,4 16,1 10 5 17 9 N 1017,3 8 0,0
17.10.2018 09:00:00 16,1 16,1 15,6 8 4 13 7 N 1017,0 7 0,0
17.10.2018 08:00:00 15,9 15,9 15,6 0 0 9 5 N 1017,1 5 0,2
17.10.2018 07:00:00 15,8 15,8 15,6 3 1 11 6 NNE 1017,2 4,2 0,6
17.10.2018 06:00:00 16,0 16,0 15,7 7 4 11 6 NE 1017,3 4,9 0,0
17.10.2018 05:00:00 16,0 16,0 15,7 3 1 13 7 NE 1017,3 4,6 0,0
17.10.2018 04:00:00 16,3 16,3 16,0 8 4 10 5 N 1017,5 3,2 0,0
17.10.2018 03:00:00 16,2 16,2 15,9 0 0 14 8 N 1018,1 3,4 1,8
17.10.2018 02:00:00 16,4 16,4 15,8 6 4 10 6 E 1018,6 3,1 0,4
17.10.2018 01:00:00 16,4 16,4 16,0 5 3 8 5 ESE 1018,5 7 0,0
17.10.2018 00:00:00 16,6 16,6 16,1 3 2 10 5 W 1018,5 9 0,0
16.10.2018 23:00:00 17,1 17,1 16,4 6 4 10 5 NW 1018,8 11 0,0
16.10.2018 22:00:00 17,0 17,0 15,6 2 1 11 6 NW 1018,9 12 0,0
16.10.2018 21:00:00 17,0 17,0 15,6 2 1 5 3 SE 1018,8 10 0,0
16.10.2018 20:00:00 17,7 17,5 16,9 0 0 10 5 N 1018,4 13 0,0
16.10.2018 19:00:00 18,0 16,0 17,0 0 0 19 10 N 1018,2 15 0,0
16.10.2018 18:00:00 18,9 15,6 18,9 14 7 22 12 NNE 1017,7 20 0,0
16.10.2018 17:00:00 19,9 17,1 20,5 17 9 24 13 N 1017,6 10 0,0
16.10.2018 16:00:00 19,1 17,6 20,5 15 8 27 15 N 1017,6 15 0,0
16.10.2018 15:00:00 19,7 19,7 19,5 17 9 24 13 N 1017,5 12 0,0
16.10.2018 14:00:00 18,6 18,6 18,2 10 6 16 8 N 1017,7 12 0,0
16.10.2018 13:00:00 17,7 17,7 16,6 9 5 22 12 ENE 1018,1 9 0,2
16.10.2018 12:00:00 17,1 17,1 16,0 12 7 19 10 NE 1018,3 6 0,0
16.10.2018 11:00:00 16,8 16,8 15,6 9 5 21 11 NE 1017,9 7 0,4
16.10.2018 10:00:00 16,8 16,8 15,6 11 6 20 11 NE 1017,2 9 0,0
16.10.2018 09:00:00 16,3 16,3 15,5 8 4 14 8 NNE 1016,7 10 0,0
16.10.2018 08:00:00 16,1 16,1 15,4 8 5 12 6 NNE 1016,0 9 0,0
16.10.2018 07:00:00 16,2 16,2 15,5 9 5 16 8 NE 1015,7 8 0,0
16.10.2018 06:00:00 17,1 17,1 15,7 7 4 24 13 ENE 1015,4 10 0,0
16.10.2018 05:00:00 17,2 17,2 15,2 18 10 32 17 ESE 1015,1 10 0,4
16.10.2018 04:00:00 17,0 16,8 15,2 26 14 54 29 E 1015,3 6 0,2
16.10.2018 03:00:00 17,8 17,0 15,7 23 12 40 22 E 1015,2 13 0,0
16.10.2018 02:00:00 16,6 16,6 15,5 9 5 51 28 E 1015,3 9 1,0
16.10.2018 01:00:00 17,3 17,3 15,6 27 14 40 22 E 1015,4 10 0,0
16.10.2018 00:00:00 17,1 17,1 15,5 24 13 50 27 E 1015,0 9 0,6
15.10.2018 23:00:00 17,6 17,0 15,8 25 13 42 23 E 1014,8 15 0,0
15.10.2018 22:00:00 16,2 16,2 15,7 11 6 32 17 E 1014,3 5 2,8
15.10.2018 21:00:00 16,3 16,3 15,8 8 4 21 11 S 1013,8 1,6 3,1
15.10.2018 20:00:00 16,5 16,5 15,8 12 7 31 17 SE 1013,3 3,1 2,6
15.10.2018 19:00:00 17,2 17,2 15,8 23 13 45 24 SE 1012,2 4,0 1,6
15.10.2018 18:00:00 18,3 16,8 16,3 31 17 59 32 ESE 1011,3 8 0,0
15.10.2018 17:00:00 19,3 16,5 16,9 30 16 54 29 ESE 1010,3 11 0,0
15.10.2018 16:00:00 20,0 15,0 16,9 30 16 68 37 E 1010,1 13 0,0
15.10.2018 15:00:00 21,7 12,5 21,2 40 21 68 37 ESE 1009,8 17 0,0
15.10.2018 14:00:00 21,7 12,8 19,7 32 18 59 32 E 1009,5 21 0,0
15.10.2018 13:00:00 20,8 12,2 16,9 34 19 55 30 E 1009,9 19 0,0
15.10.2018 12:00:00 20,1 12,8 15,7 39 21 55 30 ESE 1010,9 13 0,0
15.10.2018 11:00:00 19,4 13,1 15,5 40 21 60 32 ESE 1010,7 9 0,8
15.10.2018 10:00:00 21,1 10,9 20,2 34 18 58 31 E 1010,1 20 0,0
15.10.2018 09:00:00 20,7 11,1 19,6 35 19 54 29 E 1009,6 22 0,0
15.10.2018 08:00:00 20,2 11,7 19,3 30 16 46 25 E 1009,5 22 0,0
15.10.2018 07:00:00 20,1 12,6 19,2 25 13 40 21 E 1009,7 21 0,0
15.10.2018 06:00:00 19,9 12,9 18,8 22 12 37 20 E 1010,1 22 0,0
15.10.2018 05:00:00 19,7 12,2 18,8 24 13 39 21 E 1010,5 23 0,0
15.10.2018 04:00:00 19,8 11,3 18,5 25 14 45 24 E 1011,1 26 0,0
15.10.2018 03:00:00 19,5 11,0 18,1 21 12 35 19 E 1011,4 21 0,0
15.10.2018 02:00:00 19,4 11,4 17,7 16 8 26 14 E 1012,3 23 0,0
15.10.2018 01:00:00 19,0 11,6 17,8 14 7 26 14 E 1012,6 20 0,0
15.10.2018 00:00:00 18,9 12,6 17,8 17 9 32 18 E 1013,0 20 0,0
14.10.2018 23:00:00 19,4 12,4 18,4 21 11 48 26 E 1013,3 19 0,0
14.10.2018 22:00:00 20,0 13,7 19,0 30 16 42 23 ESE 1013,4 19 0,0
14.10.2018 21:00:00 20,1 14,7 19,3 26 14 41 22 ESE 1013,5 18 0,0
14.10.2018 20:00:00 20,5 14,8 19,9 27 14 44 24 ESE 1013,2 19 0,0
14.10.2018 19:00:00 20,9 14,1 20,4 31 17 51 28 ESE 1012,9 19 0,0
14.10.2018 18:00:00 21,4 14,1 21,0 32 17 48 26 ESE 1012,6 19 0,0
14.10.2018 17:00:00 21,8 13,9 21,7 29 16 46 25 ESE 1012,6 18 0,0
14.10.2018 16:00:00 22,0 15,6 22,4 31 17 52 28 ESE 1012,9 17 0,0
14.10.2018 15:00:00 22,1 15,9 22,5 36 19 55 30 SE 1013,8 20 0,0
14.10.2018 14:00:00 22,5 15,3 23,3 36 19 55 30 SE 1014,4 20 0,0
14.10.2018 13:00:00 22,6 13,6 23,1 38 21 54 29 ESE 1015,2 33 0,0
14.10.2018 12:00:00 22,0 15,4 21,8 35 19 52 28 ESE 1015,4 29 0,0
14.10.2018 11:00:00 20,9 16,9 20,7 26 14 38 20 E 1015,6 19 0,0
14.10.2018 10:00:00 19,9 15,1 17,8 20 11 26 14 E 1015,8 20 0,0
14.10.2018 09:00:00 17,7 16,2 15,4 14 8 19 11 E 1015,5 20 0,0
14.10.2018 08:00:00 16,7 14,7 15,0 6 3 18 10 ESE 1015,2 20 0,0
14.10.2018 07:00:00 16,5 14,1 14,6 14 7 20 11 E 1015,4 21 0,0
14.10.2018 06:00:00 17,4 13,3 15,8 11 6 18 10 E 1015,9 23 0,0
14.10.2018 05:00:00 17,3 13,2 15,0 14 8 21 12 E 1016,0 29 0,0
14.10.2018 04:00:00 16,4 13,7 15,2 12 6 23 12 E 1016,9 21 0,0
14.10.2018 03:00:00 16,8 12,9 15,7 15 8 27 14 E 1017,2 23 0,0
14.10.2018 02:00:00 17,4 11,9 16,5 18 10 28 15 E 1017,5 25 0,0
14.10.2018 01:00:00 17,8 12,0 16,8 17 9 26 14 E 1017,8 25 0,0
14.10.2018 00:00:00 18,1 14,0 16,3 14 8 19 11 E 1018,2 22 0,0
13.10.2018 23:00:00 17,7 15,1 15,7 9 5 18 10 E 1018,7 19 0,0
13.10.2018 22:00:00 19,7 13,4 18,4 13 7 23 13 ESE 1018,7 22 0,0
13.10.2018 21:00:00 19,9 15,7 18,5 14 7 20 11 ESE 1018,9 19 0,0
13.10.2018 20:00:00 19,8 16,6 18,6 16 8 22 12 SE 1019,1 21 0,0
13.10.2018 19:00:00 20,8 16,8 19,9 18 10 39 21 SE 1019,0 23 0,0
13.10.2018 18:00:00 22,2 16,5 22,1 31 17 51 27 SSE 1018,8 33 0,0
13.10.2018 17:00:00 23,2 16,0 25,2 38 21 50 27 SSE 1018,9 25 0,0
13.10.2018 16:00:00 24,0 15,5 26,6 35 19 45 25 SSE 1019,3 26 0,0
13.10.2018 15:00:00 24,4 17,1 26,6 29 16 41 22 SSE 1020,0 20 0,0
13.10.2018 14:00:00 24,1 16,1 27,3 27 15 37 20 SSE 1021,0 34 0,0
13.10.2018 13:00:00 24,1 15,3 26,9 22 12 32 17 SE 1021,9 38 0,0
13.10.2018 12:00:00 23,2 15,8 25,2 11 6 17 9 ESE 1022,4 19 0,0
13.10.2018 11:00:00 21,5 16,0 22,4 8 4 16 9 E 1022,6 20 0,0
13.10.2018 10:00:00 19,5 16,2 19,4 12 7 18 10 E 1022,4 40 0,0
13.10.2018 09:00:00 16,8 16,8 15,9 7 4 15 8 NE 1022,3 39 0,0
13.10.2018 08:00:00 16,3 16,3 15,6 10 5 14 8 ENE 1022,4 37 0,0
13.10.2018 07:00:00 16,4 16,4 15,6 8 4 14 7 NE 1022,5 32 0,0
13.10.2018 06:00:00 16,5 16,5 15,3 11 6 15 8 E 1022,7 23 0,0
13.10.2018 05:00:00 15,5 15,5 14,6 8 5 13 7 NNE 1023,1 17 0,0
13.10.2018 04:00:00 15,4 15,4 15,0 9 5 13 7 NNE 1023,3 10 0,0
13.10.2018 03:00:00 16,3 16,3 15,7 10 6 16 8 NNE 1023,6 12 0,0
13.10.2018 02:00:00 17,0 17,0 16,2 9 5 12 7 NNE 1023,7 13 0,0
13.10.2018 01:00:00 17,6 17,6 16,6 7 4 12 7 NNE 1023,9 14 0,0
13.10.2018 00:00:00 18,1 18,1 17,8 8 4 11 6 NE 1024,4 18 0,0
12.10.2018 23:00:00 17,9 17,9 16,6 6 4 9 5 NE 1024,6 17 0,0
12.10.2018 22:00:00 17,6 17,6 16,4 5 3 7 4 NE 1024,6 18 0,0
12.10.2018 21:00:00 18,8 18,8 16,7 4 2 8 5 ESE 1024,1 24 0,0
12.10.2018 20:00:00 19,7 19,2 18,3 5 3 12 7 ESE 1024,0 35 0,0
12.10.2018 19:00:00 20,5 19,8 19,7 10 5 21 12 SSE 1023,6 36 0,0
12.10.2018 18:00:00 21,6 19,7 21,6 16 9 26 14 S 1023,3 40 0,0
12.10.2018 17:00:00 23,0 18,7 25,0 19 10 29 16 SSE 1023,5 20 0,0
12.10.2018 16:00:00 22,8 20,0 24,7 21 11 31 17 SSE 1023,6 25 0,0
12.10.2018 15:00:00 23,2 20,7 25,8 21 12 31 17 S 1023,9 36 0,0
12.10.2018 14:00:00 23,2 19,6 26,9 22 12 33 18 S 1024,2 35 0,0
12.10.2018 13:00:00 22,7 19,9 24,3 11 6 23 12 ESE 1024,6 38 0,0
12.10.2018 12:00:00 21,7 18,5 21,5 11 6 16 9 E 1024,7 32 0,0
12.10.2018 11:00:00 20,4 18,7 21,1 14 7 19 10 E 1024,7 39 0,0
12.10.2018 10:00:00 20,0 18,5 18,2 13 7 18 10 ENE 1023,9 34 0,0
12.10.2018 09:00:00 17,5 17,5 - 6 4 - - NE 1023,6 42 -
12.10.2018 08:00:00 16,0 16,0 15,0 8 4 12 7 NNE 1022,7 38 0,0
12.10.2018 07:00:00 15,6 15,6 14,6 10 5 13 7 NNE 1022,0 38 0,0
12.10.2018 06:00:00 15,9 15,9 14,9 5 3 15 8 ENE 1021,5 46 0,0
12.10.2018 05:00:00 17,5 17,5 16,1 10 5 14 8 ENE 1021,0 50 0,0
12.10.2018 04:00:00 16,8 16,8 16,2 5 3 16 9 NE 1021,0 45 0,0
12.10.2018 03:00:00 17,4 17,4 16,4 7 4 16 9 ENE 1021,1 42 0,0

tt = temperature
td = dewpoint
tt 5cm = temperature 5cm
ff = wind speed
fx = gusts
dd = wind direction
ppp = reduced air pressure
vv = visibility
rr = precipitation

Next stations